Time,TemperatureF,DewpointF,PressureIn,WindDirection,WindDirectionDegrees,WindSpeedMPH,WindSpeedGustMPH,Humidity,HourlyPrecipIn,Conditions,Clouds,dailyrainin,SoftwareType,DateUTC
2013-05-22 00:01:00,70.8,69.6,29.87,SSE,168,6.0,9.0,96,0.00,,CLR,0.00,VWS V14.01,2013-05-22 04:01:00,
2013-05-22 00:02:00,70.8,69.6,29.87,SSE,158,4.0,9.0,96,0.00,,CLR,0.00,VWS V14.01,2013-05-22 04:02:00,
2013-05-22 00:07:00,70.8,69.6,29.87,South,169,8.0,8.0,96,0.00,,CLR,0.00,VWS V14.01,2013-05-22 04:07:00,
2013-05-22 00:12:00,70.7,69.5,29.87,SSE,159,5.0,10.0,96,0.00,,CLR,0.00,VWS V14.01,2013-05-22 04:12:00,
2013-05-22 00:17:00,70.7,69.5,29.87,South,187,7.0,9.0,96,0.00,,CLR,0.00,VWS V14.01,2013-05-22 04:17:00,
2013-05-22 00:22:00,70.7,69.5,29.87,SSE,165,2.0,10.0,96,0.00,,CLR,0.00,VWS V14.01,2013-05-22 04:22:00,
2013-05-22 00:27:00,70.6,69.4,29.87,SSE,165,6.0,9.0,96,0.00,,CLR,0.00,VWS V14.01,2013-05-22 04:27:00,
2013-05-22 00:32:00,70.6,69.4,29.87,South,185,4.0,7.0,96,0.00,,CLR,0.00,VWS V14.01,2013-05-22 04:32:00,
2013-05-22 00:37:00,70.7,69.5,29.87,SSE,165,6.0,9.0,96,0.00,,CLR,0.00,VWS V14.01,2013-05-22 04:37:00,
2013-05-22 00:42:00,70.7,69.5,29.87,SSE,162,5.0,9.0,96,0.00,,CLR,0.00,VWS V14.01,2013-05-22 04:42:00,
2013-05-22 00:47:00,70.7,69.5,29.88,South,178,7.0,7.0,96,0.00,,CLR,0.00,VWS V14.01,2013-05-22 04:47:00,
2013-05-22 00:52:00,70.8,69.6,29.88,SSE,154,7.0,9.0,96,0.00,,CLR,0.00,VWS V14.01,2013-05-22 04:52:00,
2013-05-22 00:57:00,70.8,69.6,29.88,SSE,167,6.0,9.0,96,0.00,,CLR,0.00,VWS V14.01,2013-05-22 04:57:00,
2013-05-22 01:02:00,70.8,69.6,29.88,SSE,167,5.0,10.0,96,0.00,,CLR,0.00,VWS V14.01,2013-05-22 05:02:00,
2013-05-22 01:07:00,70.8,69.6,29.87,SSE,168,5.0,8.0,96,0.00,,CLR,0.00,VWS V14.01,2013-05-22 05:07:00,
2013-05-22 01:12:00,70.8,69.6,29.87,South,170,6.0,10.0,96,0.00,,CLR,0.00,VWS V14.01,2013-05-22 05:12:00,
2013-05-22 01:17:00,70.8,69.6,29.87,SSE,165,3.0,9.0,96,0.00,,CLR,0.00,VWS V14.01,2013-05-22 05:17:00,
2013-05-22 01:22:00,70.8,69.6,29.87,SSE,165,6.0,10.0,96,0.00,,CLR,0.00,VWS V14.01,2013-05-22 05:22:00,
2013-05-22 01:27:00,70.7,69.5,29.87,South,170,9.0,9.0,96,0.00,,CLR,0.00,VWS V14.01,2013-05-22 05:27:00,
2013-05-22 01:32:00,70.7,69.5,29.87,South,186,5.0,14.0,96,0.00,,CLR,0.00,VWS V14.01,2013-05-22 05:32:00,
2013-05-22 01:37:00,70.7,69.5,29.87,SSE,161,3.0,9.0,96,0.00,,CLR,0.00,VWS V14.01,2013-05-22 05:37:00,
2013-05-22 01:42:00,70.7,69.5,29.87,SSE,163,7.0,10.0,96,0.00,,CLR,0.00,VWS V14.01,2013-05-22 05:42:00,
2013-05-22 01:47:00,70.7,69.5,29.87,SSE,161,5.0,11.0,96,0.00,,CLR,0.00,VWS V14.01,2013-05-22 05:47:00,
2013-05-22 01:52:00,70.7,69.5,29.86,SSE,160,5.0,7.0,96,0.00,,CLR,0.00,VWS V14.01,2013-05-22 05:52:00,
2013-05-22 01:57:00,70.6,69.4,29.86,SSE,163,11.0,11.0,96,0.00,,CLR,0.00,VWS V14.01,2013-05-22 05:57:00,
2013-05-22 02:02:00,70.7,69.5,29.86,South,169,6.0,8.0,96,0.00,,CLR,0.00,VWS V14.01,2013-05-22 06:02:00,
2013-05-22 02:07:00,70.7,69.5,29.86,SSE,163,7.0,9.0,96,0.00,,CLR,0.00,VWS V14.01,2013-05-22 06:07:00,
2013-05-22 02:12:00,70.7,69.5,29.86,SSE,167,4.0,7.0,96,0.00,,CLR,0.00,VWS V14.01,2013-05-22 06:12:00,
2013-05-22 02:17:00,70.6,69.4,29.86,South,170,7.0,9.0,96,0.00,,CLR,0.00,VWS V14.01,2013-05-22 06:17:00,
2013-05-22 02:22:00,70.6,69.4,29.86,SSW,194,6.0,10.0,96,0.00,,CLR,0.00,VWS V14.01,2013-05-22 06:22:00,
2013-05-22 02:27:00,70.6,69.4,29.86,SSE,165,5.0,10.0,96,0.00,,CLR,0.00,VWS V14.01,2013-05-22 06:27:00,
2013-05-22 02:32:00,70.6,69.4,29.85,SSE,159,5.0,9.0,96,0.00,,CLR,0.00,VWS V14.01,2013-05-22 06:32:00,
2013-05-22 02:37:00,70.6,69.4,29.86,SSE,167,10.0,10.0,96,0.00,,CLR,0.00,VWS V14.01,2013-05-22 06:37:00,
2013-05-22 02:42:00,70.6,69.4,29.86,SSW,196,10.0,11.0,96,0.00,,CLR,0.00,VWS V14.01,2013-05-22 06:42:00,
2013-05-22 02:47:00,70.6,69.4,29.86,South,170,5.0,12.0,96,0.00,,CLR,0.00,VWS V14.01,2013-05-22 06:47:00,
2013-05-22 02:52:00,70.6,69.4,29.85,South,177,9.0,11.0,96,0.00,,CLR,0.00,VWS V14.01,2013-05-22 06:52:00,
2013-05-22 02:57:00,70.6,69.4,29.85,SSE,163,4.0,9.0,96,0.00,,CLR,0.00,VWS V14.01,2013-05-22 06:57:00,
2013-05-22 03:02:00,70.5,69.3,29.85,SSE,167,5.0,10.0,96,0.00,,CLR,0.00,VWS V14.01,2013-05-22 07:02:00,
2013-05-22 03:07:00,70.6,69.4,29.85,South,173,5.0,10.0,96,0.00,,CLR,0.00,VWS V14.01,2013-05-22 07:07:00,
2013-05-22 03:12:00,70.6,69.4,29.85,South,175,11.0,11.0,96,0.00,,CLR,0.00,VWS V14.01,2013-05-22 07:12:00,
2013-05-22 03:17:00,70.5,69.3,29.85,SSE,154,5.0,10.0,96,0.00,,CLR,0.00,VWS V14.01,2013-05-22 07:17:00,
2013-05-22 03:22:00,70.4,69.2,29.85,SSE,163,4.0,10.0,96,0.00,,CLR,0.00,VWS V14.01,2013-05-22 07:22:00,
2013-05-22 03:27:00,70.3,69.1,29.85,SSE,167,8.0,11.0,96,0.00,,CLR,0.00,VWS V14.01,2013-05-22 07:27:00,
2013-05-22 03:32:00,70.3,69.4,29.85,SSE,159,7.0,12.0,97,0.00,,CLR,0.00,VWS V14.01,2013-05-22 07:32:00,
2013-05-22 03:37:00,70.2,69.0,29.85,SSE,161,7.0,10.0,96,0.00,,CLR,0.00,VWS V14.01,2013-05-22 07:37:00,
2013-05-22 03:42:00,70.1,69.2,29.84,SSW,196,5.0,10.0,97,0.00,,CLR,0.00,VWS V14.01,2013-05-22 07:42:00,
2013-05-22 03:47:00,70.1,69.2,29.84,South,171,5.0,9.0,97,0.00,,CLR,0.00,VWS V14.01,2013-05-22 07:47:00,
2013-05-22 03:52:00,70.1,69.2,29.84,SSE,161,4.0,12.0,97,0.00,,CLR,0.00,VWS V14.01,2013-05-22 07:52:00,
2013-05-22 03:57:00,70.2,69.3,29.84,SSE,163,3.0,10.0,97,0.00,,CLR,0.00,VWS V14.01,2013-05-22 07:57:00,
2013-05-22 04:02:00,70.3,69.4,29.84,SSE,160,4.0,9.0,97,0.00,,CLR,0.00,VWS V14.01,2013-05-22 08:02:00,
2013-05-22 04:07:00,70.2,69.3,29.84,South,177,3.0,7.0,97,0.00,,CLR,0.00,VWS V14.01,2013-05-22 08:07:00,
2013-05-22 04:12:00,70.2,69.3,29.83,SSE,162,11.0,12.0,97,0.00,,CLR,0.00,VWS V14.01,2013-05-22 08:12:00,
2013-05-22 04:17:00,70.2,69.3,29.84,South,180,5.0,11.0,97,0.00,,CLR,0.00,VWS V14.01,2013-05-22 08:17:00,
2013-05-22 04:22:00,70.1,69.2,29.84,SSE,164,5.0,6.0,97,0.00,,CLR,0.00,VWS V14.01,2013-05-22 08:22:00,
2013-05-22 04:27:00,70.1,69.2,29.84,SSE,161,5.0,11.0,97,0.00,,CLR,0.00,VWS V14.01,2013-05-22 08:27:00,
2013-05-22 04:32:00,70.0,69.1,29.84,SSE,160,2.0,10.0,97,0.00,,SCT008,0.00,VWS V14.01,2013-05-22 08:32:00,
2013-05-22 04:37:00,70.0,69.1,29.84,SSE,166,3.0,9.0,97,0.00,,SCT008,0.00,VWS V14.01,2013-05-22 08:37:00,
2013-05-22 04:42:00,70.0,69.1,29.83,SSE,168,5.0,7.0,97,0.00,,SCT008,0.00,VWS V14.01,2013-05-22 08:42:00,
2013-05-22 04:47:00,70.0,69.1,29.83,SSE,160,3.0,9.0,97,0.00,,SCT008,0.00,VWS V14.01,2013-05-22 08:47:00,
2013-05-22 04:52:00,70.0,69.1,29.84,South,172,1.0,10.0,97,0.00,,BKN008,0.00,VWS V14.01,2013-05-22 08:52:00,
2013-05-22 04:57:00,70.0,69.1,29.84,SSW,192,2.0,10.0,97,0.00,,BKN008,0.00,VWS V14.01,2013-05-22 08:57:00,
2013-05-22 05:02:00,70.0,69.1,29.84,SSW,199,3.0,9.0,97,0.00,,BKN008,0.00,VWS V14.01,2013-05-22 09:02:00,
2013-05-22 05:07:00,69.9,69.0,29.84,SSW,200,4.0,6.0,97,0.00,,BKN008,0.00,VWS V14.01,2013-05-22 09:07:00,
2013-05-22 05:12:00,69.9,69.0,29.84,SSE,156,6.0,8.0,97,0.00,,BKN008,0.00,VWS V14.01,2013-05-22 09:12:00,
2013-05-22 05:17:00,69.8,68.9,29.84,SSE,160,1.0,5.0,97,0.00,,BKN008,0.00,VWS V14.01,2013-05-22 09:17:00,
2013-05-22 05:22:00,69.8,68.9,29.84,SSE,166,5.0,10.0,97,0.00,,BKN008,0.00,VWS V14.01,2013-05-22 09:22:00,
2013-05-22 05:27:00,69.7,68.8,29.84,SSE,161,5.0,10.0,97,0.00,,BKN008,0.00,VWS V14.01,2013-05-22 09:27:00,
2013-05-22 05:32:00,69.7,68.8,29.84,SSE,160,6.0,7.0,97,0.00,,BKN008,0.00,VWS V14.01,2013-05-22 09:32:00,
2013-05-22 05:37:00,69.7,68.8,29.85,SSW,213,2.0,7.0,97,0.00,,BKN008,0.00,VWS V14.01,2013-05-22 09:37:00,
2013-05-22 05:42:00,69.7,68.8,29.85,SSE,156,4.0,7.0,97,0.00,,SCT013,0.00,VWS V14.01,2013-05-22 09:42:00,
2013-05-22 05:47:00,69.7,68.8,29.85,SSE,165,9.0,9.0,97,0.00,,SCT013,0.00,VWS V14.01,2013-05-22 09:47:00,
2013-05-22 05:52:00,69.7,68.8,29.86,SSE,157,0.0,3.0,97,0.00,,BKN013,0.00,VWS V14.01,2013-05-22 09:52:00,
2013-05-22 05:57:00,69.7,68.8,29.86,SSE,165,6.0,7.0,97,0.00,,BKN013,0.00,VWS V14.01,2013-05-22 09:57:00,
2013-05-22 06:02:00,69.7,69.1,29.85,South,170,5.0,8.0,98,0.00,,BKN013,0.00,VWS V14.01,2013-05-22 10:02:00,
2013-05-22 06:07:00,69.7,69.1,29.85,SSE,163,5.0,9.0,98,0.00,,BKN013,0.00,VWS V14.01,2013-05-22 10:07:00,
2013-05-22 06:12:00,69.8,69.2,29.85,SSW,204,3.0,6.0,98,0.00,,BKN013,0.00,VWS V14.01,2013-05-22 10:12:00,
2013-05-22 06:17:00,69.8,69.2,29.86,SSE,161,2.0,7.0,98,0.00,,BKN013,0.00,VWS V14.01,2013-05-22 10:17:00,
2013-05-22 06:22:00,69.8,68.9,29.86,SSE,168,5.0,7.0,97,0.00,,BKN013,0.00,VWS V14.01,2013-05-22 10:22:00,
2013-05-22 06:27:00,70.0,69.4,29.86,South,174,3.0,5.0,98,0.00,,BKN013,0.00,VWS V14.01,2013-05-22 10:27:00,
2013-05-22 06:32:00,70.1,69.2,29.87,South,174,2.0,2.0,97,0.00,,BKN013,0.00,VWS V14.01,2013-05-22 10:32:00,
2013-05-22 06:37:00,70.1,69.2,29.87,South,171,2.0,5.0,97,0.00,,BKN013,0.00,VWS V14.01,2013-05-22 10:37:00,
2013-05-22 06:43:00,70.0,69.1,29.87,SSE,167,2.0,7.0,97,0.00,,BKN013,0.00,VWS V14.01,2013-05-22 10:43:00,
2013-05-22 06:48:00,70.1,69.2,29.87,SSE,150,2.0,5.0,97,0.00,,BKN013,0.00,VWS V14.01,2013-05-22 10:48:00,
2013-05-22 06:53:00,70.0,69.1,29.87,SW,215,4.0,5.0,97,0.00,,BKN013,0.00,VWS V14.01,2013-05-22 10:53:00,
2013-05-22 06:58:00,70.1,69.2,29.87,SSE,167,6.0,6.0,97,0.00,,BKN013,0.00,VWS V14.01,2013-05-22 10:58:00,
2013-05-22 07:03:00,70.0,69.1,29.88,South,173,3.0,8.0,97,0.00,,BKN013,0.00,VWS V14.01,2013-05-22 11:03:00,
2013-05-22 07:08:00,70.0,69.1,29.88,SSE,165,7.0,10.0,97,0.00,,BKN013,0.00,VWS V14.01,2013-05-22 11:08:00,
2013-05-22 07:13:00,70.1,69.2,29.88,SW,223,5.0,7.0,97,0.00,,BKN013,0.00,VWS V14.01,2013-05-22 11:13:00,
2013-05-22 07:18:00,70.1,69.2,29.88,SSE,158,4.0,9.0,97,0.00,,BKN013,0.00,VWS V14.01,2013-05-22 11:18:00,
2013-05-22 07:23:00,70.1,69.2,29.89,South,190,1.0,5.0,97,0.00,,BKN013,0.00,VWS V14.01,2013-05-22 11:23:00,
2013-05-22 07:28:00,70.1,69.2,29.89,SSE,166,4.0,7.0,97,0.00,,BKN013,0.00,VWS V14.01,2013-05-22 11:28:00,
2013-05-22 07:33:00,70.2,69.3,29.89,SSE,159,4.0,5.0,97,0.00,,BKN013,0.00,VWS V14.01,2013-05-22 11:33:00,
2013-05-22 07:38:00,70.2,69.3,29.89,SSE,167,4.0,7.0,97,0.00,,BKN013,0.00,VWS V14.01,2013-05-22 11:38:00,
2013-05-22 07:43:00,70.3,69.4,29.89,South,170,1.0,4.0,97,0.00,,OVC009,0.00,VWS V14.01,2013-05-22 11:43:00,
2013-05-22 07:48:00,70.3,69.4,29.89,South,170,3.0,9.0,97,0.00,,OVC009,0.00,VWS V14.01,2013-05-22 11:48:00,
2013-05-22 07:53:00,70.4,69.5,29.89,SSE,159,4.0,5.0,97,0.00,,OVC009,0.00,VWS V14.01,2013-05-22 11:53:00,
2013-05-22 07:58:00,70.4,69.5,29.89,South,177,5.0,9.0,97,0.00,,OVC009,0.00,VWS V14.01,2013-05-22 11:58:00,
2013-05-22 08:03:00,70.4,69.5,29.89,SSE,161,4.0,10.0,97,0.00,,OVC009,0.00,VWS V14.01,2013-05-22 12:03:00,
2013-05-22 08:08:00,70.5,69.6,29.89,SSE,158,4.0,7.0,97,0.00,,OVC009,0.00,VWS V14.01,2013-05-22 12:08:00,
2013-05-22 08:13:00,70.5,69.6,29.89,SSE,161,4.0,7.0,97,0.00,,OVC009,0.00,VWS V14.01,2013-05-22 12:13:00,
2013-05-22 08:18:00,70.6,69.7,29.89,SSE,161,2.0,5.0,97,0.00,,OVC009,0.00,VWS V14.01,2013-05-22 12:18:00,
2013-05-22 08:23:00,70.6,69.4,29.89,SSE,167,5.0,9.0,96,0.00,,OVC009,0.00,VWS V14.01,2013-05-22 12:23:00,
2013-05-22 08:28:00,70.7,69.8,29.90,South,181,1.0,5.0,97,0.00,,OVC009,0.00,VWS V14.01,2013-05-22 12:28:00,
2013-05-22 08:33:00,70.9,70.0,29.91,SSW,213,2.0,11.0,97,0.00,,OVC009,0.00,VWS V14.01,2013-05-22 12:33:00,
2013-05-22 08:38:00,70.9,69.7,29.90,SSW,207,5.0,7.0,96,0.00,,OVC009,0.00,VWS V14.01,2013-05-22 12:38:00,
2013-05-22 08:43:00,70.9,69.7,29.91,SSW,194,3.0,6.0,96,0.00,,OVC009,0.00,VWS V14.01,2013-05-22 12:43:00,
2013-05-22 08:48:00,71.0,69.8,29.91,SSE,163,4.0,6.0,96,0.00,,OVC009,0.00,VWS V14.01,2013-05-22 12:48:00,
2013-05-22 08:53:00,71.1,69.9,29.91,South,172,1.0,8.0,96,0.00,,OVC009,0.00,VWS V14.01,2013-05-22 12:53:00,
2013-05-22 08:58:00,71.3,70.1,29.91,SSW,213,3.0,9.0,96,0.00,,OVC009,0.00,VWS V14.01,2013-05-22 12:58:00,
2013-05-22 09:03:00,71.3,69.8,29.91,SW,229,7.0,10.0,95,0.00,,OVC009,0.00,VWS V14.01,2013-05-22 13:03:00,
2013-05-22 09:08:00,71.2,69.7,29.92,WSW,238,6.0,6.0,95,0.00,,OVC009,0.00,VWS V14.01,2013-05-22 13:08:00,
2013-05-22 09:13:00,71.2,69.7,29.92,WSW,254,5.0,10.0,95,0.00,,OVC009,0.00,VWS V14.01,2013-05-22 13:13:00,
2013-05-22 09:18:00,71.2,69.7,29.92,SW,217,3.0,7.0,95,0.00,,OVC009,0.00,VWS V14.01,2013-05-22 13:18:00,
2013-05-22 09:23:00,71.3,69.8,29.91,SSW,212,3.0,8.0,95,0.00,,OVC009,0.00,VWS V14.01,2013-05-22 13:23:00,
2013-05-22 09:28:00,71.5,70.0,29.91,SW,218,5.0,10.0,95,0.00,,OVC009,0.00,VWS V14.01,2013-05-22 13:28:00,
2013-05-22 09:33:00,71.7,70.2,29.91,SW,234,4.0,6.0,95,0.00,,OVC009,0.00,VWS V14.01,2013-05-22 13:33:00,
2013-05-22 09:38:00,71.9,70.4,29.92,WSW,237,3.0,8.0,95,0.00,,OVC009,0.00,VWS V14.01,2013-05-22 13:38:00,
2013-05-22 09:43:00,72.0,70.2,29.92,SW,231,3.0,7.0,94,0.00,,OVC008,0.00,VWS V14.01,2013-05-22 13:43:00,
2013-05-22 09:48:00,72.0,70.2,29.92,SSW,199,5.0,8.0,94,0.00,,OVC008,0.00,VWS V14.01,2013-05-22 13:48:00,
2013-05-22 09:53:00,72.1,70.3,29.92,SW,215,4.0,8.0,94,0.00,,OVC008,0.00,VWS V14.01,2013-05-22 13:53:00,
2013-05-22 09:58:00,72.2,70.4,29.92,SW,229,3.0,11.0,94,0.00,,OVC008,0.00,VWS V14.01,2013-05-22 13:58:00,
2013-05-22 10:03:00,72.3,70.5,29.92,SSW,209,2.0,9.0,94,0.00,,OVC008,0.00,VWS V14.01,2013-05-22 14:03:00,
2013-05-22 10:08:00,72.6,70.8,29.91,SW,215,4.0,7.0,94,0.00,,OVC008,0.00,VWS V14.01,2013-05-22 14:08:00,
2013-05-22 10:13:00,72.7,70.9,29.91,SSW,200,4.0,7.0,94,0.00,,OVC008,0.00,VWS V14.01,2013-05-22 14:13:00,
2013-05-22 10:18:00,73.0,70.9,29.92,SW,222,6.0,6.0,93,0.00,,OVC008,0.00,VWS V14.01,2013-05-22 14:18:00,
2013-05-22 10:23:00,73.1,71.0,29.92,SSW,201,2.0,6.0,93,0.00,,OVC008,0.00,VWS V14.01,2013-05-22 14:23:00,
2013-05-22 10:28:00,73.0,70.9,29.92,SSW,209,2.0,5.0,93,0.00,,OVC008,0.00,VWS V14.01,2013-05-22 14:28:00,
2013-05-22 10:33:00,73.1,71.0,29.91,SSE,158,4.0,6.0,93,0.00,,OVC008,0.00,VWS V14.01,2013-05-22 14:33:00,
2013-05-22 10:38:00,73.2,71.1,29.92,South,170,3.0,6.0,93,0.00,,OVC008,0.00,VWS V14.01,2013-05-22 14:38:00,
2013-05-22 10:43:00,73.1,70.6,29.92,South,185,5.0,6.0,92,0.00,,OVC008,0.00,VWS V14.01,2013-05-22 14:43:00,
2013-05-22 10:48:00,73.3,71.2,29.92,South,174,4.0,10.0,93,0.00,,OVC008,0.00,VWS V14.01,2013-05-22 14:48:00,
2013-05-22 10:53:00,73.6,71.5,29.92,SW,217,4.0,9.0,93,0.00,,OVC008,0.00,VWS V14.01,2013-05-22 14:53:00,
2013-05-22 10:58:00,73.8,71.3,29.91,South,178,3.0,5.0,92,0.00,,OVC008,0.00,VWS V14.01,2013-05-22 14:58:00,
2013-05-22 11:03:00,74.2,71.7,29.92,South,173,2.0,6.0,92,0.00,,OVC008,0.00,VWS V14.01,2013-05-22 15:03:00,
2013-05-22 11:08:00,74.6,72.1,29.92,SW,219,2.0,6.0,92,0.00,,OVC008,0.00,VWS V14.01,2013-05-22 15:08:00,
2013-05-22 11:13:00,74.7,71.9,29.92,SSE,155,5.0,7.0,91,0.00,,OVC008,0.00,VWS V14.01,2013-05-22 15:13:00,
2013-05-22 11:18:00,74.7,71.6,29.91,SSW,208,4.0,7.0,90,0.00,,OVC008,0.00,VWS V14.01,2013-05-22 15:18:00,
2013-05-22 11:23:00,74.9,72.1,29.91,South,175,3.0,6.0,91,0.00,,OVC008,0.00,VWS V14.01,2013-05-22 15:23:00,
2013-05-22 11:28:00,75.3,72.5,29.91,SE,134,5.0,6.0,91,0.00,,OVC008,0.00,VWS V14.01,2013-05-22 15:28:00,
2013-05-22 11:33:00,75.3,72.2,29.91,South,173,3.0,7.0,90,0.00,,OVC008,0.00,VWS V14.01,2013-05-22 15:33:00,
2013-05-22 11:38:00,75.5,72.0,29.91,SSE,157,6.0,10.0,89,0.00,,OVC008,0.00,VWS V14.01,2013-05-22 15:38:00,
2013-05-22 11:43:00,75.6,72.5,29.91,SSE,164,4.0,9.0,90,0.00,,OVC010,0.00,VWS V14.01,2013-05-22 15:43:00,
2013-05-22 11:48:00,75.9,72.4,29.91,SSE,153,5.0,8.0,89,0.00,,OVC010,0.00,VWS V14.01,2013-05-22 15:48:00,
2013-05-22 11:53:00,75.9,72.1,29.91,SSE,152,5.0,10.0,88,0.00,,OVC010,0.00,VWS V14.01,2013-05-22 15:53:00,
2013-05-22 11:58:00,75.8,72.3,29.91,SSE,157,3.0,9.0,89,0.00,,OVC010,0.00,VWS V14.01,2013-05-22 15:58:00,
2013-05-22 12:03:00,76.0,72.5,29.91,SSE,164,7.0,9.0,89,0.00,,OVC010,0.00,VWS V14.01,2013-05-22 16:03:00,
2013-05-22 12:08:00,76.0,72.5,29.91,SSE,167,6.0,10.0,89,0.00,,OVC010,0.00,VWS V14.01,2013-05-22 16:08:00,
2013-05-22 12:13:00,75.5,72.0,29.91,SSE,150,7.0,11.0,89,0.00,,OVC010,0.00,VWS V14.01,2013-05-22 16:13:00,
2013-05-22 12:18:00,75.5,72.4,29.90,South,169,4.0,9.0,90,0.00,,OVC010,0.00,VWS V14.01,2013-05-22 16:18:00,
2013-05-22 12:23:00,76.0,72.9,29.90,South,172,5.0,10.0,90,0.00,,OVC010,0.00,VWS V14.01,2013-05-22 16:23:00,
2013-05-22 12:28:00,76.3,72.8,29.90,SSE,163,11.0,13.0,89,0.00,,OVC010,0.00,VWS V14.01,2013-05-22 16:28:00,
2013-05-22 12:34:00,75.8,72.3,29.90,South,183,9.0,11.0,89,0.00,,OVC010,0.00,VWS V14.01,2013-05-22 16:34:00,
2013-05-22 12:39:00,75.7,72.6,29.90,SSE,166,7.0,11.0,90,0.00,,OVC010,0.00,VWS V14.01,2013-05-22 16:39:00,
2013-05-22 12:44:00,75.7,72.6,29.90,SSE,161,10.0,11.0,90,0.00,,OVC050,0.00,VWS V14.01,2013-05-22 16:44:00,
2013-05-22 12:49:00,75.7,72.6,29.90,SSE,157,5.0,10.0,90,0.00,,OVC050,0.00,VWS V14.01,2013-05-22 16:49:00,
2013-05-22 12:54:00,76.0,72.9,29.90,SSE,161,6.0,7.0,90,0.00,,OVC050,0.00,VWS V14.01,2013-05-22 16:54:00,
2013-05-22 12:59:00,76.6,73.4,29.90,South,173,5.0,5.0,90,0.00,,OVC050,0.00,VWS V14.01,2013-05-22 16:59:00,
2013-05-22 13:04:00,76.7,72.5,29.90,SSE,167,9.0,12.0,87,0.00,,OVC050,0.00,VWS V14.01,2013-05-22 17:04:00,
2013-05-22 13:09:00,76.4,72.6,29.90,SSW,201,11.0,12.0,88,0.00,,OVC050,0.00,VWS V14.01,2013-05-22 17:09:00,
2013-05-22 13:14:00,75.9,72.4,29.90,South,177,6.0,13.0,89,0.00,,OVC050,0.00,VWS V14.01,2013-05-22 17:14:00,
2013-05-22 13:19:00,75.4,71.6,29.90,South,179,9.0,13.0,88,0.00,,OVC050,0.00,VWS V14.01,2013-05-22 17:19:00,
2013-05-22 13:24:00,75.2,72.1,29.89,South,175,12.0,14.0,90,0.00,,OVC050,0.00,VWS V14.01,2013-05-22 17:24:00,
2013-05-22 13:29:00,75.3,72.5,29.89,South,173,12.0,12.0,91,0.00,,OVC050,0.00,VWS V14.01,2013-05-22 17:29:00,
2013-05-22 13:34:00,75.5,72.4,29.89,South,169,13.0,16.0,90,0.00,,OVC050,0.00,VWS V14.01,2013-05-22 17:34:00,
2013-05-22 13:39:00,75.5,72.4,29.89,South,186,11.0,14.0,90,0.00,,OVC050,0.00,VWS V14.01,2013-05-22 17:39:00,
2013-05-22 13:44:00,75.4,71.9,29.89,SSE,159,11.0,18.0,89,0.00,,BKN080,0.00,VWS V14.01,2013-05-22 17:44:00,
2013-05-22 13:49:00,75.5,72.4,29.89,SSE,162,11.0,13.0,90,0.00,,BKN080,0.00,VWS V14.01,2013-05-22 17:49:00,
2013-05-22 13:54:00,75.7,72.6,29.89,SSE,167,13.0,16.0,90,0.00,,BKN080,0.00,VWS V14.01,2013-05-22 17:54:00,
2013-05-22 13:59:00,75.9,72.4,29.88,South,187,11.0,15.0,89,0.00,,BKN080,0.00,VWS V14.01,2013-05-22 17:59:00,
2013-05-22 14:04:00,75.9,72.4,29.88,South,175,9.0,12.0,89,0.00,,BKN080,0.00,VWS V14.01,2013-05-22 18:04:00,
2013-05-22 14:09:00,76.3,73.5,29.88,South,184,9.0,11.0,91,0.00,,BKN080,0.00,VWS V14.01,2013-05-22 18:09:00,
2013-05-22 14:14:00,76.4,72.9,29.88,SSE,160,13.0,14.0,89,0.00,,BKN080,0.00,VWS V14.01,2013-05-22 18:14:00,
2013-05-22 14:19:00,76.4,72.9,29.88,South,171,12.0,14.0,89,0.00,,BKN080,0.00,VWS V14.01,2013-05-22 18:19:00,
2013-05-22 14:24:00,76.5,73.0,29.88,SSE,167,9.0,12.0,89,0.00,,BKN080,0.00,VWS V14.01,2013-05-22 18:24:00,
2013-05-22 14:29:00,76.7,73.2,29.88,SSE,167,14.0,14.0,89,0.00,,BKN080,0.00,VWS V14.01,2013-05-22 18:29:00,
2013-05-22 14:34:00,76.8,73.0,29.87,SSE,166,8.0,15.0,88,0.00,,BKN080,0.00,VWS V14.01,2013-05-22 18:34:00,
2013-05-22 14:39:00,76.6,72.8,29.87,South,182,9.0,15.0,88,0.00,,BKN080,0.00,VWS V14.01,2013-05-22 18:39:00,
2013-05-22 14:44:00,76.4,72.6,29.88,South,184,6.0,14.0,88,0.00,,BKN080,0.00,VWS V14.01,2013-05-22 18:44:00,
2013-05-22 14:49:00,76.4,72.6,29.87,SSE,158,12.0,14.0,88,0.00,,BKN080,0.00,VWS V14.01,2013-05-22 18:49:00,
2013-05-22 14:54:00,76.5,72.7,29.87,South,176,11.0,14.0,88,0.00,,BKN080,0.00,VWS V14.01,2013-05-22 18:54:00,
2013-05-22 14:59:00,76.5,72.7,29.87,South,170,14.0,14.0,88,0.00,,BKN080,0.00,VWS V14.01,2013-05-22 18:59:00,
2013-05-22 15:04:00,76.6,72.8,29.87,South,175,10.0,14.0,88,0.00,,BKN080,0.00,VWS V14.01,2013-05-22 19:04:00,
2013-05-22 15:09:00,76.9,73.1,29.87,South,178,12.0,16.0,88,0.00,,BKN080,0.00,VWS V14.01,2013-05-22 19:09:00,
2013-05-22 15:14:00,77.1,73.3,29.86,South,170,9.0,12.0,88,0.00,,BKN080,0.00,VWS V14.01,2013-05-22 19:14:00,
2013-05-22 15:19:00,77.3,73.1,29.86,South,181,11.0,14.0,87,0.00,,BKN080,0.00,VWS V14.01,2013-05-22 19:19:00,
2013-05-22 15:24:00,77.3,73.1,29.86,SSE,166,10.0,12.0,87,0.00,,BKN080,0.00,VWS V14.01,2013-05-22 19:24:00,
2013-05-22 15:29:00,77.5,73.7,29.86,South,169,9.0,13.0,88,0.00,,BKN080,0.00,VWS V14.01,2013-05-22 19:29:00,
2013-05-22 15:34:00,77.7,73.5,29.86,South,180,7.0,12.0,87,0.00,,BKN080,0.00,VWS V14.01,2013-05-22 19:34:00,
2013-05-22 15:39:00,77.7,73.5,29.86,SSE,167,9.0,12.0,87,0.00,,BKN080,0.00,VWS V14.01,2013-05-22 19:39:00,
2013-05-22 15:44:00,77.6,73.1,29.86,South,177,10.0,13.0,86,0.00,,BKN100,0.00,VWS V14.01,2013-05-22 19:44:00,
2013-05-22 15:49:00,77.5,73.0,29.86,South,179,9.0,16.0,86,0.00,,BKN100,0.00,VWS V14.01,2013-05-22 19:49:00,
2013-05-22 15:54:00,77.7,73.9,29.85,South,180,7.0,10.0,88,0.00,,BKN100,0.00,VWS V14.01,2013-05-22 19:54:00,
2013-05-22 15:59:00,77.9,73.7,29.85,SSE,161,6.0,10.0,87,0.00,,BKN100,0.00,VWS V14.01,2013-05-22 19:59:00,
2013-05-22 16:04:00,78.0,73.5,29.85,South,169,9.0,13.0,86,0.00,,BKN100,0.00,VWS V14.01,2013-05-22 20:04:00,
2013-05-22 16:09:00,77.9,73.4,29.85,South,174,10.0,11.0,86,0.00,,BKN100,0.00,VWS V14.01,2013-05-22 20:09:00,
2013-05-22 16:14:00,77.6,73.1,29.85,South,179,9.0,12.0,86,0.00,,BKN100,0.00,VWS V14.01,2013-05-22 20:14:00,
2013-05-22 16:19:00,77.4,73.2,29.85,South,174,11.0,12.0,87,0.00,,BKN100,0.00,VWS V14.01,2013-05-22 20:19:00,
2013-05-22 16:24:00,77.4,73.6,29.85,South,174,5.0,13.0,88,0.00,,BKN100,0.00,VWS V14.01,2013-05-22 20:24:00,
2013-05-22 16:29:00,77.6,73.8,29.84,South,173,6.0,11.0,88,0.00,,BKN100,0.00,VWS V14.01,2013-05-22 20:29:00,
2013-05-22 16:34:00,77.8,74.0,29.84,SSE,167,11.0,11.0,88,0.00,,BKN100,0.00,VWS V14.01,2013-05-22 20:34:00,
2013-05-22 16:39:00,77.9,74.1,29.84,SSE,162,9.0,11.0,88,0.00,,BKN100,0.00,VWS V14.01,2013-05-22 20:39:00,
2013-05-22 16:44:00,77.9,74.1,29.84,SSE,163,6.0,13.0,88,0.00,,BKN100,0.00,VWS V14.01,2013-05-22 20:44:00,
2013-05-22 16:49:00,78.0,74.2,29.84,SE,140,7.0,12.0,88,0.00,,BKN100,0.00,VWS V14.01,2013-05-22 20:49:00,
2013-05-22 16:55:00,78.1,74.3,29.84,SSE,161,8.0,11.0,88,0.00,,BKN100,0.00,VWS V14.01,2013-05-22 20:55:00,
2013-05-22 17:00:00,78.0,74.2,29.83,SSE,159,10.0,12.0,88,0.00,,BKN100,0.00,VWS V14.01,2013-05-22 21:00:00,
2013-05-22 17:05:00,78.0,73.8,29.83,SSE,167,10.0,12.0,87,0.00,,BKN100,0.00,VWS V14.01,2013-05-22 21:05:00,
2013-05-22 17:10:00,77.9,74.1,29.83,SSE,161,11.0,12.0,88,0.00,,BKN100,0.00,VWS V14.01,2013-05-22 21:10:00,
2013-05-22 17:15:00,77.8,74.0,29.83,South,170,11.0,13.0,88,0.00,,BKN100,0.00,VWS V14.01,2013-05-22 21:15:00,
2013-05-22 17:20:00,77.8,74.0,29.83,SSE,167,11.0,12.0,88,0.00,,BKN100,0.00,VWS V14.01,2013-05-22 21:20:00,
2013-05-22 17:25:00,77.7,73.5,29.83,South,173,6.0,12.0,87,0.00,,BKN100,0.00,VWS V14.01,2013-05-22 21:25:00,
2013-05-22 17:30:00,77.8,74.0,29.83,SSE,166,11.0,11.0,88,0.00,,BKN100,0.00,VWS V14.01,2013-05-22 21:30:00,
2013-05-22 17:35:00,77.8,74.0,29.82,South,181,10.0,12.0,88,0.00,,BKN100,0.00,VWS V14.01,2013-05-22 21:35:00,
2013-05-22 17:40:00,77.8,73.6,29.82,SSE,164,11.0,14.0,87,0.00,,SCT026,0.00,VWS V14.01,2013-05-22 21:40:00,
2013-05-22 17:45:00,77.8,73.6,29.82,SSE,161,9.0,12.0,87,0.00,,SCT026,0.00,VWS V14.01,2013-05-22 21:45:00,
2013-05-22 17:50:00,77.7,73.5,29.82,SSE,159,12.0,12.0,87,0.00,,SCT026,0.00,VWS V14.01,2013-05-22 21:50:00,
2013-05-22 17:55:00,77.6,73.4,29.82,SSE,167,7.0,13.0,87,0.00,,SCT026,0.00,VWS V14.01,2013-05-22 21:55:00,
2013-05-22 18:00:00,77.6,73.8,29.82,SSE,161,12.0,13.0,88,0.00,,SCT026,0.00,VWS V14.01,2013-05-22 22:00:00,
2013-05-22 18:05:00,77.5,73.7,29.82,SSE,159,10.0,11.0,88,0.00,,SCT026,0.00,VWS V14.01,2013-05-22 22:05:00,
2013-05-22 18:10:00,77.5,73.7,29.83,SSE,168,9.0,10.0,88,0.00,,SCT026,0.00,VWS V14.01,2013-05-22 22:10:00,
2013-05-22 18:15:00,77.4,73.2,29.82,South,184,4.0,10.0,87,0.00,,SCT026,0.00,VWS V14.01,2013-05-22 22:15:00,
2013-05-22 18:20:00,77.5,73.7,29.82,South,169,5.0,9.0,88,0.00,,SCT026,0.00,VWS V14.01,2013-05-22 22:20:00,
2013-05-22 18:25:00,77.4,73.2,29.82,South,175,10.0,11.0,87,0.00,,SCT026,0.00,VWS V14.01,2013-05-22 22:25:00,
2013-05-22 18:30:00,77.3,73.1,29.82,SSE,163,11.0,11.0,87,0.00,,SCT026,0.00,VWS V14.01,2013-05-22 22:30:00,
2013-05-22 18:35:00,77.1,72.9,29.83,SSE,168,7.0,12.0,87,0.00,,SCT026,0.00,VWS V14.01,2013-05-22 22:35:00,
2013-05-22 18:40:00,77.1,72.9,29.83,SSE,165,12.0,12.0,87,0.00,,SCT200,0.00,VWS V14.01,2013-05-22 22:40:00,
2013-05-22 18:45:00,77.1,72.9,29.83,South,172,13.0,15.0,87,0.00,,SCT200,0.00,VWS V14.01,2013-05-22 22:45:00,
2013-05-22 18:50:00,77.1,72.9,29.83,South,182,12.0,12.0,87,0.00,,SCT200,0.00,VWS V14.01,2013-05-22 22:50:00,
2013-05-22 18:55:00,77.0,72.8,29.83,SSE,164,9.0,13.0,87,0.00,,SCT200,0.00,VWS V14.01,2013-05-22 22:55:00,
2013-05-22 19:00:00,76.9,72.7,29.83,SSE,168,10.0,12.0,87,0.00,,SCT200,0.00,VWS V14.01,2013-05-22 23:00:00,
2013-05-22 19:05:00,76.8,72.6,29.83,South,181,10.0,12.0,87,0.00,,SCT200,0.00,VWS V14.01,2013-05-22 23:05:00,
2013-05-22 19:10:00,76.7,72.5,29.83,South,172,6.0,11.0,87,0.00,,SCT200,0.00,VWS V14.01,2013-05-22 23:10:00,
2013-05-22 19:15:00,76.7,72.5,29.83,South,175,12.0,12.0,87,0.00,,SCT200,0.00,VWS V14.01,2013-05-22 23:15:00,
2013-05-22 19:20:00,76.6,72.4,29.83,SSE,166,9.0,13.0,87,0.00,,SCT200,0.00,VWS V14.01,2013-05-22 23:20:00,
2013-05-22 19:25:00,76.5,72.7,29.83,SSE,167,6.0,11.0,88,0.00,,SCT200,0.00,VWS V14.01,2013-05-22 23:25:00,
2013-05-22 19:30:00,76.4,72.6,29.83,South,183,5.0,11.0,88,0.00,,SCT200,0.00,VWS V14.01,2013-05-22 23:30:00,
2013-05-22 19:35:00,76.2,72.4,29.83,SSW,193,9.0,12.0,88,0.00,,SCT200,0.00,VWS V14.01,2013-05-22 23:35:00,
2013-05-22 19:40:00,76.2,72.4,29.83,South,171,7.0,11.0,88,0.00,,SKC,0.00,VWS V14.01,2013-05-22 23:40:00,
2013-05-22 19:45:00,76.0,72.2,29.84,South,169,5.0,11.0,88,0.00,,SKC,0.00,VWS V14.01,2013-05-22 23:45:00,
2013-05-22 19:50:00,75.9,72.1,29.84,South,169,7.0,12.0,88,0.00,,SKC,0.00,VWS V14.01,2013-05-22 23:50:00,
2013-05-22 19:55:00,75.9,72.1,29.84,SSE,162,10.0,11.0,88,0.00,,SKC,0.00,VWS V14.01,2013-05-22 23:55:00,
2013-05-22 20:00:00,75.8,72.0,29.84,South,169,7.0,10.0,88,0.00,,SKC,0.00,VWS V14.01,2013-05-23 00:00:00,
2013-05-22 20:05:00,75.7,71.9,29.83,South,175,7.0,10.0,88,0.00,,SKC,0.00,VWS V14.01,2013-05-23 00:05:00,
2013-05-22 20:10:00,75.6,72.1,29.83,South,172,6.0,11.0,89,0.00,,BKN200,0.00,VWS V14.01,2013-05-23 00:10:00,
2013-05-22 20:15:00,75.4,71.9,29.84,SSE,167,5.0,11.0,89,0.00,,BKN200,0.00,VWS V14.01,2013-05-23 00:15:00,
2013-05-22 20:20:00,75.2,72.1,29.84,South,188,7.0,10.0,90,0.00,,BKN200,0.00,VWS V14.01,2013-05-23 00:20:00,
2013-05-22 20:25:00,75.1,72.0,29.84,South,169,5.0,11.0,90,0.00,,BKN200,0.00,VWS V14.01,2013-05-23 00:25:00,
2013-05-22 20:30:00,75.0,71.9,29.84,SSE,167,6.0,11.0,90,0.00,,BKN200,0.00,VWS V14.01,2013-05-23 00:30:00,
2013-05-22 20:35:00,75.0,71.9,29.84,SSE,149,6.0,12.0,90,0.00,,BKN200,0.00,VWS V14.01,2013-05-23 00:35:00,
2013-05-22 20:40:00,75.0,71.9,29.84,SSE,158,6.0,10.0,90,0.00,,BKN200,0.00,VWS V14.01,2013-05-23 00:40:00,
2013-05-22 20:45:00,74.9,71.8,29.84,South,177,6.0,10.0,90,0.00,,BKN200,0.00,VWS V14.01,2013-05-23 00:45:00,
2013-05-22 20:50:00,74.8,71.7,29.85,South,177,5.0,7.0,90,0.00,,BKN200,0.00,VWS V14.01,2013-05-23 00:50:00,
2013-05-22 20:55:00,74.7,71.6,29.85,South,169,7.0,11.0,90,0.00,,BKN200,0.00,VWS V14.01,2013-05-23 00:55:00,
2013-05-22 21:00:00,74.6,71.5,29.85,South,175,7.0,11.0,90,0.00,,BKN200,0.00,VWS V14.01,2013-05-23 01:00:00,
2013-05-22 21:05:00,74.5,71.4,29.85,South,171,5.0,7.0,90,0.00,,BKN200,0.00,VWS V14.01,2013-05-23 01:05:00,
2013-05-22 21:10:00,74.4,71.6,29.85,SSE,161,3.0,9.0,91,0.00,,BKN200,0.00,VWS V14.01,2013-05-23 01:10:00,
2013-05-22 21:15:00,74.3,71.5,29.86,SSE,159,6.0,8.0,91,0.00,,BKN200,0.00,VWS V14.01,2013-05-23 01:15:00,
2013-05-22 21:20:00,74.2,71.4,29.86,South,171,3.0,7.0,91,0.00,,BKN200,0.00,VWS V14.01,2013-05-23 01:20:00,
2013-05-22 21:25:00,74.1,71.3,29.86,South,169,10.0,10.0,91,0.00,,BKN200,0.00,VWS V14.01,2013-05-23 01:25:00,
2013-05-22 21:30:00,74.0,71.2,29.86,South,183,4.0,12.0,91,0.00,,BKN200,0.00,VWS V14.01,2013-05-23 01:30:00,
2013-05-22 21:36:00,74.0,71.2,29.86,South,177,6.0,6.0,91,0.00,,BKN200,0.00,VWS V14.01,2013-05-23 01:36:00,
2013-05-22 21:41:00,73.9,71.1,29.87,SSE,166,6.0,10.0,91,0.00,,BKN200,0.00,VWS V14.01,2013-05-23 01:41:00,
2013-05-22 21:46:00,73.8,71.0,29.87,SSE,167,6.0,10.0,91,0.00,,BKN200,0.00,VWS V14.01,2013-05-23 01:46:00,
2013-05-22 21:51:00,73.8,71.0,29.87,South,169,7.0,10.0,91,0.00,,BKN200,0.00,VWS V14.01,2013-05-23 01:51:00,
2013-05-22 21:56:00,73.8,71.0,29.87,South,176,9.0,10.0,91,0.00,,BKN200,0.00,VWS V14.01,2013-05-23 01:56:00,
2013-05-22 22:01:00,73.9,71.1,29.87,SSE,167,6.0,10.0,91,0.00,,BKN200,0.00,VWS V14.01,2013-05-23 02:01:00,
2013-05-22 22:06:00,73.9,71.1,29.87,SSE,166,6.0,9.0,91,0.00,,BKN200,0.00,VWS V14.01,2013-05-23 02:06:00,
2013-05-22 22:11:00,74.0,70.9,29.87,South,173,7.0,12.0,90,0.00,,BKN200,0.00,VWS V14.01,2013-05-23 02:11:00,
2013-05-22 22:16:00,73.9,70.8,29.88,South,173,7.0,9.0,90,0.00,,BKN200,0.00,VWS V14.01,2013-05-23 02:16:00,
2013-05-22 22:21:00,73.9,70.8,29.87,South,187,7.0,12.0,90,0.00,,BKN200,0.00,VWS V14.01,2013-05-23 02:21:00,
2013-05-22 22:26:00,74.0,70.9,29.87,SSE,164,8.0,11.0,90,0.00,,BKN200,0.00,VWS V14.01,2013-05-23 02:26:00,
2013-05-22 22:31:00,74.1,70.7,29.87,SSE,165,7.0,10.0,89,0.00,,BKN200,0.00,VWS V14.01,2013-05-23 02:31:00,
2013-05-22 22:36:00,74.1,70.7,29.87,SSE,153,7.0,10.0,89,0.00,,BKN200,0.00,VWS V14.01,2013-05-23 02:36:00,
2013-05-22 22:41:00,74.2,70.8,29.87,South,171,7.0,12.0,89,0.00,,BKN200,0.00,VWS V14.01,2013-05-23 02:41:00,
2013-05-22 22:46:00,74.1,70.7,29.88,South,179,9.0,11.0,89,0.00,,BKN200,0.00,VWS V14.01,2013-05-23 02:46:00,
2013-05-22 22:51:00,74.1,70.7,29.87,SSE,161,13.0,16.0,89,0.00,,BKN200,0.00,VWS V14.01,2013-05-23 02:51:00,
2013-05-22 22:56:00,73.9,70.5,29.87,SSW,206,7.0,15.0,89,0.00,,BKN200,0.00,VWS V14.01,2013-05-23 02:56:00,
2013-05-22 23:01:00,73.8,70.4,29.88,South,173,10.0,12.0,89,0.00,,BKN200,0.00,VWS V14.01,2013-05-23 03:01:00,
2013-05-22 23:06:00,73.7,70.3,29.87,SSE,163,6.0,11.0,89,0.00,,BKN200,0.00,VWS V14.01,2013-05-23 03:06:00,
2013-05-22 23:11:00,73.6,70.2,29.87,SSE,162,7.0,9.0,89,0.00,,BKN200,0.00,VWS V14.01,2013-05-23 03:11:00,
2013-05-22 23:16:00,73.6,70.2,29.88,South,169,6.0,10.0,89,0.00,,BKN200,0.00,VWS V14.01,2013-05-23 03:16:00,
2013-05-22 23:21:00,73.5,70.1,29.88,SSE,160,7.0,10.0,89,0.00,,BKN200,0.00,VWS V14.01,2013-05-23 03:21:00,
2013-05-22 23:26:00,73.4,70.0,29.87,SSE,160,6.0,12.0,89,0.00,,BKN200,0.00,VWS V14.01,2013-05-23 03:26:00,
2013-05-22 23:31:00,73.4,70.0,29.88,SSE,150,7.0,10.0,89,0.00,,BKN200,0.00,VWS V14.01,2013-05-23 03:31:00,
2013-05-22 23:36:00,73.3,69.9,29.88,SSE,160,6.0,10.0,89,0.00,,BKN200,0.00,VWS V14.01,2013-05-23 03:36:00,
2013-05-22 23:41:00,73.2,69.8,29.88,SSE,167,6.0,10.0,89,0.00,,CLR,0.00,VWS V14.01,2013-05-23 03:41:00,
2013-05-22 23:46:00,73.2,69.8,29.88,South,180,9.0,13.0,89,0.00,,CLR,0.00,VWS V14.01,2013-05-23 03:46:00,
2013-05-22 23:51:00,73.2,69.8,29.88,SW,215,6.0,11.0,89,0.00,,CLR,0.00,VWS V14.01,2013-05-23 03:51:00,
2013-05-22 23:56:00,73.3,69.5,29.88,SSE,161,7.0,11.0,88,0.00,,CLR,0.00,VWS V14.01,2013-05-23 03:56:00,